Weather reports worldwide

Advertisment
Geneve-Cointrin, Switzerland (6700): temperature & dewpoint: 10.06.2019 13:00:00 - 16.06.2019 13:00:00 (CEST)Geneve-Cointrin, Switzerland (6700): temperature 5cm: 10.06.2019 13:00:00 - 16.06.2019 13:00:00 (CEST)Geneve-Cointrin, Switzerland (6700): wind speed & gusts: 10.06.2019 13:00:00 - 16.06.2019 13:00:00 (CEST)Geneve-Cointrin, Switzerland (6700): wind direction: 10.06.2019 13:00:00 - 16.06.2019 13:00:00 (CEST)Geneve-Cointrin, Switzerland (6700): reduced air pressure: 10.06.2019 13:00:00 - 16.06.2019 13:00:00 (CEST)Geneve-Cointrin, Switzerland (6700): visibility: 10.06.2019 13:00:00 - 16.06.2019 13:00:00 (CEST)Geneve-Cointrin, Switzerland (6700): sunshine duration: 10.06.2019 13:00:00 - 16.06.2019 13:00:00 (CEST)Geneve-Cointrin, Switzerland (6700): precipitation: 10.06.2019 13:00:00 - 16.06.2019 13:00:00 (CEST)
Date & Time tt [°C] td [°C] tt 5cm [°C] ff [km/h] ff [kn] fx [km/h] fx [kn] dd ppp [hPa] vv [km] sd [min] rr [mm]
16.06.2019 13:00:00 20,3 11,9 25,7 13 7 22 12 NNE 1020,6 - 60 0,0
16.06.2019 12:00:00 18,7 11,7 24,9 11 6 24 13 NE 1021,2 - 60 0,0
16.06.2019 11:00:00 17,6 11,8 22,9 13 7 23 12 NE 1021,6 25 60 0,0
16.06.2019 10:00:00 16,3 12,1 21,5 6 4 12 6 ENE 1022,0 - 60 0,0
16.06.2019 09:00:00 14,1 12,7 16,4 5 3 11 6 N 1022,5 - 10 0,0
16.06.2019 08:00:00 13,0 11,9 13,6 2 1 5 3 WNW 1022,6 18 48 0,0
16.06.2019 07:00:00 11,3 10,8 11,7 1 1 8 4 SSE 1022,6 - 41 0,0
16.06.2019 06:00:00 10,6 10,1 8,6 3 2 6 3 W 1022,7 - 0 0,0
16.06.2019 05:00:00 10,7 10,2 8,4 4 2 6 4 SSW 1022,4 - 0 0,0
16.06.2019 04:00:00 10,9 10,5 8,9 6 3 9 5 W 1022,4 - 0 0,0
16.06.2019 03:00:00 11,2 10,7 9,1 1 1 5 3 N 1022,3 - 0 0,0
16.06.2019 02:00:00 11,8 11,1 10,1 2 1 9 5 WSW 1022,1 - 0 0,0
16.06.2019 01:00:00 12,1 11,7 10,3 4 2 10 5 NNW 1021,7 - 0 0,0
16.06.2019 00:00:00 12,9 12,1 10,5 1 1 5 3 W 1021,3 - 0 0,0
15.06.2019 23:00:00 13,4 12,8 11,4 3 2 8 4 NW 1021,0 30 0 0,0
15.06.2019 22:00:00 14,4 13,4 13,8 4 2 9 5 N 1020,5 - 0 0,0
15.06.2019 21:00:00 15,2 12,8 14,5 4 2 16 9 WSW 1019,7 - 22 0,0
15.06.2019 20:00:00 15,7 13,2 16,1 12 6 19 10 W 1019,6 30 54 0,0
15.06.2019 19:00:00 15,0 13,5 15,3 3 1 25 13 W 1019,7 - 1 0,8
15.06.2019 18:00:00 13,9 12,5 13,1 17 9 71 39 SSE 1020,0 - 0 4,9
15.06.2019 17:00:00 13,6 11,7 13,4 55 30 79 43 SW 1018,3 30 0 11,4
15.06.2019 16:00:00 21,0 14,3 21,4 20 11 30 16 NE 1013,1 - 30 0,0
15.06.2019 15:00:00 23,0 13,2 28,5 13 7 23 12 NE 1014,0 - 60 0,0
15.06.2019 14:00:00 22,3 11,7 28,7 10 5 19 10 E 1014,7 70 60 0,0
15.06.2019 13:00:00 21,5 15,0 25,9 7 4 21 11 E 1015,6 - 37 0,0
15.06.2019 12:00:00 20,2 14,9 25,6 10 5 19 10 ESE 1016,0 - 60 0,0
15.06.2019 11:00:00 18,9 14,7 22,4 4 2 14 8 W 1016,3 40 54 0,0
15.06.2019 10:00:00 16,7 15,0 19,4 8 4 16 9 SSE 1017,3 - 15 0,0
15.06.2019 09:00:00 15,7 15,1 15,4 6 3 17 9 S 1017,2 - 0 0,7
15.06.2019 08:00:00 15,6 14,8 15,2 6 3 9 5 W 1016,7 20 0 1,2
15.06.2019 07:00:00 15,4 14,3 14,8 4 2 7 4 W 1016,2 - 0 1,1
15.06.2019 06:00:00 15,0 14,5 14,5 4 2 8 4 N 1015,8 - 0 1,0
15.06.2019 05:00:00 15,2 14,6 14,6 2 1 23 12 NNE 1015,2 - 0 0,5
15.06.2019 04:00:00 15,6 14,2 14,6 18 10 27 15 SSW 1015,2 - 0 2,7
15.06.2019 03:00:00 16,3 13,6 15,0 6 3 25 13 S 1013,9 - 0 0,4
15.06.2019 02:00:00 18,6 15,2 17,6 12 7 41 22 WNW 1012,4 - 0 0,0
15.06.2019 01:00:00 18,1 15,0 16,3 21 11 39 21 SW 1011,3 - 0 0,0
15.06.2019 00:00:00 18,6 14,8 16,7 14 8 23 12 WSW 1010,4 - 0 0,0
14.06.2019 23:00:00 18,8 15,8 16,5 12 7 17 9 SW 1009,7 30 0 0,0
14.06.2019 22:00:00 19,7 16,1 17,1 11 6 16 9 WSW 1008,8 - 0 0,0
14.06.2019 21:00:00 20,4 15,4 18,8 2 1 11 6 N 1008,4 - 0 0,0
14.06.2019 20:00:00 21,7 15,1 20,6 7 4 13 7 WSW 1009,3 20 0 0,0
14.06.2019 19:00:00 22,1 14,5 23,4 9 5 21 11 NNE 1009,2 - 36 0,0
14.06.2019 18:00:00 22,1 14,5 24,3 11 6 26 14 NE 1010,0 - 57 0,0
14.06.2019 17:00:00 21,5 14,5 24,2 11 6 28 15 NNE 1011,4 20 27 0,0
14.06.2019 16:00:00 20,6 14,2 25,4 13 7 24 13 NE 1012,2 - 55 0,0
14.06.2019 15:00:00 18,9 13,4 22,0 17 9 25 13 NE 1014,0 - 46 0,0
14.06.2019 14:00:00 17,1 13,4 18,2 5 3 20 11 N 1015,9 15 1 0,0
14.06.2019 13:00:00 15,9 13,0 17,1 3 2 16 9 NE 1016,7 - 0 0,1
14.06.2019 12:00:00 15,2 14,2 15,1 4 2 9 5 E 1017,8 - 0 0,1
14.06.2019 11:00:00 14,7 13,4 14,6 5 3 12 6 SE 1018,6 15 0 0,6
14.06.2019 10:00:00 14,4 13,3 14,2 8 5 14 8 W 1018,8 - 0 1,0
14.06.2019 09:00:00 14,5 13,4 13,8 10 5 24 13 WSW 1018,5 - 0 0,7
14.06.2019 08:00:00 14,2 12,2 13,7 9 5 22 12 NNW 1015,3 25 0 0,0
14.06.2019 07:00:00 13,6 11,8 12,9 4 2 7 4 NE 1015,1 - 0 0,0
14.06.2019 06:00:00 14,3 10,4 13,2 6 4 10 6 NW 1014,8 - 0 0,0
14.06.2019 05:00:00 14,0 10,4 13,3 5 3 10 5 W 1014,8 - 0 0,0
14.06.2019 04:00:00 13,8 9,7 11,7 3 2 11 6 SW 1014,4 - 0 0,0
14.06.2019 03:00:00 13,7 10,3 12,6 4 2 8 4 WNW 1015,0 - 0 0,0
14.06.2019 02:00:00 14,1 8,8 11,5 2 1 8 4 N 1015,2 - 0 0,0
14.06.2019 01:00:00 14,5 9,3 11,8 2 1 10 5 N 1015,4 - 0 0,0
14.06.2019 00:00:00 15,6 9,4 12,2 5 3 7 4 NW 1015,3 - 0 0,0
13.06.2019 23:00:00 16,8 8,8 12,1 2 1 10 6 NW 1014,6 75 0 0,0
13.06.2019 22:00:00 17,8 8,7 13,6 3 1 9 5 ENE 1013,9 - 0 0,0
13.06.2019 21:00:00 20,2 7,8 17,2 4 2 13 7 N 1012,8 - 48 0,0
13.06.2019 20:00:00 23,7 6,9 24,6 7 4 19 10 SW 1011,8 75 60 0,0
13.06.2019 19:00:00 24,6 5,2 26,7 11 6 22 12 S 1011,5 - 60 0,0
13.06.2019 18:00:00 25,6 4,1 27,4 11 6 26 14 SW 1011,7 - 60 0,0
13.06.2019 17:00:00 25,0 3,7 29,0 11 6 30 16 SW 1012,0 75 60 0,0
13.06.2019 16:00:00 24,9 5,2 28,7 11 6 22 12 SSW 1012,3 - 60 0,0
13.06.2019 15:00:00 23,9 2,6 29,0 11 6 21 12 SW 1012,7 - 60 0,0
13.06.2019 14:00:00 23,3 5,0 27,5 8 4 26 14 SW 1013,3 75 60 0,0
13.06.2019 13:00:00 22,0 2,7 26,7 10 5 24 13 SW 1014,1 - 60 0,0
13.06.2019 12:00:00 20,5 3,4 25,7 12 6 24 13 SSW 1014,8 - 60 0,0
13.06.2019 11:00:00 18,5 7,8 24,5 5 3 15 8 E 1015,3 75 60 0,0
13.06.2019 10:00:00 17,5 7,4 23,6 3 2 12 7 W 1015,6 - 60 0,0
13.06.2019 09:00:00 15,8 7,4 20,3 3 2 8 4 SW 1015,9 - 60 0,0
13.06.2019 08:00:00 14,4 7,0 17,0 2 1 8 5 SSW 1015,9 75 60 0,0
13.06.2019 07:00:00 11,3 7,4 10,9 3 1 7 4 W 1016,3 - 44 0,0
13.06.2019 06:00:00 8,5 6,5 5,7 4 2 7 4 NNW 1016,6 - 0 0,0
13.06.2019 05:00:00 10,5 6,8 6,2 1 1 13 7 WSW 1015,9 - 0 0,0
13.06.2019 04:00:00 9,8 7,4 7,0 7 4 13 7 WNW 1016,0 - 0 0,0
13.06.2019 03:00:00 12,7 6,3 10,0 8 4 13 7 WSW 1015,4 - 0 0,0
13.06.2019 02:00:00 14,1 6,9 12,2 9 5 16 9 WSW 1015,1 - 0 0,0
13.06.2019 01:00:00 15,7 7,5 13,2 6 3 14 7 SW 1014,6 - 0 0,0
13.06.2019 00:00:00 15,9 8,1 13,1 8 4 11 6 SW 1014,4 - 0 0,0
12.06.2019 23:00:00 14,9 8,7 11,4 2 1 9 5 WNW 1014,1 70 0 0,0
12.06.2019 22:00:00 17,1 7,3 15,4 6 3 13 7 WSW 1013,2 - 0 0,0
12.06.2019 21:00:00 19,3 5,4 17,5 10 5 25 13 WSW 1012,0 - 40 0,0
12.06.2019 20:00:00 20,2 6,5 21,5 12 7 30 16 SSW 1011,5 70 60 0,0
12.06.2019 19:00:00 21,0 6,0 23,3 21 11 35 19 SSW 1010,9 - 60 0,0
12.06.2019 18:00:00 20,6 6,0 24,7 20 11 38 20 S 1010,9 - 60 0,0
12.06.2019 17:00:00 20,6 6,8 24,9 18 10 36 20 SSW 1011,0 70 60 0,0
12.06.2019 16:00:00 20,3 6,9 24,8 21 12 32 17 SSW 1011,1 - 60 0,0
12.06.2019 15:00:00 19,7 7,4 25,1 16 9 32 17 SSW 1011,4 - 60 0,0
12.06.2019 14:00:00 18,5 7,0 24,4 16 9 36 19 S 1011,8 70 60 0,0
12.06.2019 13:00:00 18,6 9,7 24,3 10 5 34 19 SW 1012,1 - 60 0,0
12.06.2019 12:00:00 17,3 7,7 24,0 18 10 30 16 SSW 1012,5 - 60 0,0
12.06.2019 11:00:00 15,0 7,8 22,3 10 5 23 12 WSW 1012,8 45 60 0,0
12.06.2019 10:00:00 13,8 8,1 19,2 14 8 22 12 SW 1013,3 - 57 0,0
12.06.2019 09:00:00 12,0 8,2 16,8 9 5 15 8 SW 1013,3 - 37 0,0
12.06.2019 08:00:00 10,9 9,1 14,2 3 2 13 7 NW 1013,6 25 17 0,0
12.06.2019 07:00:00 10,3 8,9 9,6 9 5 24 13 SSW 1013,3 - 0 1,5
12.06.2019 06:00:00 10,4 9,4 9,6 14 7 26 14 SSW 1013,2 - 0 2,6
12.06.2019 05:00:00 10,9 9,9 10,2 18 10 25 14 SSW 1012,3 - 0 3,9
12.06.2019 04:00:00 11,5 10,7 10,9 9 5 16 9 SW 1011,3 - 0 2,0
12.06.2019 03:00:00 11,6 11,0 11,1 5 3 12 6 WSW 1011,1 - 0 0,8
12.06.2019 02:00:00 11,7 11,2 11,3 6 3 7 4 W 1010,9 - 0 1,1
12.06.2019 01:00:00 12,0 11,5 11,6 1 1 5 3 WNW 1012,0 - 0 1,6
12.06.2019 00:00:00 12,2 11,7 11,6 3 2 8 4 W 1012,3 - 0 1,3
11.06.2019 23:00:00 12,4 11,7 11,9 4 2 10 5 WSW 1012,6 6 0 1,6
11.06.2019 22:00:00 13,0 11,6 12,4 5 3 7 4 WSW 1012,4 - 0 2,5
11.06.2019 21:00:00 12,9 12,2 12,4 2 1 7 4 W 1012,0 - 0 0,9
11.06.2019 20:00:00 13,1 12,1 12,7 4 2 6 3 WNW 1012,1 16 0 0,0
11.06.2019 19:00:00 13,0 11,9 12,9 3 2 11 6 N 1011,7 - 0 0,1
11.06.2019 18:00:00 13,5 12,5 14,0 3 1 7 4 NW 1011,9 - 0 0,4
11.06.2019 17:00:00 13,2 12,1 13,6 5 3 8 4 WSW 1012,3 7 0 0,8
11.06.2019 16:00:00 13,4 11,9 13,5 4 2 7 4 W 1011,9 - 0 0,6
11.06.2019 15:00:00 13,1 10,7 13,6 3 1 8 5 N 1011,9 - 0 0,9
11.06.2019 14:00:00 12,8 11,3 13,9 3 2 9 5 NW 1012,0 8 0 1,0
11.06.2019 13:00:00 12,6 11,2 12,8 4 2 13 7 W 1012,3 - 0 1,0
11.06.2019 12:00:00 12,0 10,3 12,8 4 2 17 9 NW 1012,1 - 0 0,7
11.06.2019 11:00:00 12,5 11,5 12,8 11 6 16 9 WSW 1012,1 9 0 0,5
11.06.2019 10:00:00 12,3 10,7 12,9 6 3 16 8 E 1011,5 - 0 0,5
11.06.2019 09:00:00 11,8 10,9 11,6 8 4 12 7 WSW 1012,0 - 0 0,5
11.06.2019 08:00:00 11,4 10,8 11,3 5 3 10 5 WSW 1011,8 3,5 0 0,0
11.06.2019 07:00:00 11,2 10,4 11,0 7 4 11 6 SW 1011,9 - 0 0,2
11.06.2019 06:00:00 11,0 10,0 10,6 6 3 9 5 SW 1012,1 - 0 0,0
11.06.2019 05:00:00 11,2 10,2 10,8 1 1 12 6 W 1012,3 - 0 0,0
11.06.2019 04:00:00 11,7 9,2 10,6 6 3 13 7 N 1012,5 - 0 0,4
11.06.2019 03:00:00 12,9 12,3 12,5 4 2 10 6 N 1012,6 - 0 0,0
11.06.2019 02:00:00 12,8 12,3 12,3 5 3 8 5 N 1013,1 - 0 0,0
11.06.2019 01:00:00 12,8 12,4 12,3 4 2 9 5 N 1013,4 - 0 0,0
11.06.2019 00:00:00 12,8 12,1 12,3 3 1 5 3 ENE 1013,9 - 0 0,0
10.06.2019 23:00:00 12,9 12,2 12,3 3 2 8 4 N 1013,9 18 0 0,1
10.06.2019 22:00:00 13,0 12,3 12,4 6 3 13 7 ENE 1014,1 - 0 0,1
10.06.2019 21:00:00 13,4 12,4 12,7 7 4 14 8 ENE 1014,3 - 0 0,8
10.06.2019 20:00:00 13,7 13,0 13,3 3 2 10 5 E 1014,2 15 0 0,5
10.06.2019 19:00:00 14,0 12,6 13,4 2 1 10 5 WNW 1014,0 - 0 2,0
10.06.2019 18:00:00 14,8 12,6 14,3 4 2 13 7 NNW 1014,2 - 0 1,3
10.06.2019 17:00:00 14,4 13,4 14,1 4 2 9 5 NNW 1014,4 8 0 0,8
10.06.2019 16:00:00 14,6 13,7 15,3 5 3 11 6 NW 1014,4 - 0 2,8
10.06.2019 15:00:00 14,3 12,8 14,1 6 3 14 7 WNW 1015,5 - 1 1,5
10.06.2019 14:00:00 14,9 14,1 15,7 5 3 19 10 ESE 1015,0 8 0 2,8
10.06.2019 13:00:00 14,4 13,5 14,5 6 4 11 6 E 1015,5 - 0 0,0

tt = temperature
td = dewpoint
tt 5cm = temperature 5cm
ff = wind speed
fx = gusts
dd = wind direction
ppp = reduced air pressure
vv = visibility
sd = sunshine duration
rr = precipitation

Next stations